Location: Trout Lake
(45.9980°N, 121.5270°W)
Time: 20:01:00
(UTC-08:00)

Cosmos 2251 Rocket - Pass Details

Date: 06 December 2023
Orbit: 763 x 790 km, 74.0° (Epoch: 22 February)

Event Time Altitude Azimuth Distance (km) Brightness Sun altitude
Rises 17:01:49 0° 342° (NNW) 3,279 6.7 -7.0°
Reaches altitude 10° 17:04:18 10° 348° (NNW) 2,350 5.9 -7.4°
Maximum altitude 17:09:27 47° 62° (ENE) 1,040 3.8 -8.2°
Drops below altitude 10° 17:14:36 10° 136° (SE) 2,347 5.8 -9.0°
Sets 17:17:04 0° 143° (SE) 3,274 6.6 -9.4°
